Regional Weather Roundup
Issued by NWS

Home | Current Version | Previous Version | Graphics & Text | Print | Product List | Glossary On
Versions: 1 2 3 4 5 6 7 8 9 10 11 12 13 14 15 16 17 18 19 20 21 22 23 24 25 26 27 28 29 30 31 32 33 34 35 36 37 38 39 40 41 42 43 44 45 46 47 48 49 50
000
ASUS45 KSLC 062110
RWRUT

UTAH REGIONAL WEATHER ROUNDUP
NATIONAL WEATHER SERVICE SALT LAKE CITY UT
300 PM MDT MON JUL 06 2015

UTZ001>011-023>025-062200-

NORTHERN UTAH

CITY           SKY/WX    TMP DP  RH WIND       PRES   REMARKS
BRIGHAM CITY   PTSUNNY   80  54  40 N25G32    30.08S
HILL AFB       MOSUNNY   85  51  30 W13G21    30.10F
LOGAN          LGT RAIN  70  60  70 W17       30.11R
OGDEN          MOSUNNY   86  49  27 W8G16     30.08F
PROVO AIRPORT  PTSUNNY   79  55  44 CALM      30.09F
SALT LAKE CITY PTSUNNY   89  54  30 NW9       30.05F
VERNAL         PTSUNNY   80  39  23 N18G31    30.12S
WENDOVER       MOSUNNY   88  46  23 N13       30.08F
HEBER CITY     CLOUDY    81  43  26 S5        30.14F
WEST JORDAN    SUNNY     81  54  39 N3        30.09F

$$

UTZ012>022-026-027-062200-

SOUTHERN/CENTRAL UTAH

CITY           SKY/WX    TMP DP  RH WIND       PRES   REMARKS
BLANDING       PTSUNNY   79  51  37 SW9       30.25F
BRYCE CANYON   CLOUDY    70  53  54 NE7       30.35F
CEDAR CITY     LGT RAIN  63  55  75 SE20      30.24R
DELTA          MOSUNNY   88  39  18 NW6       30.10F
HANKSVILLE     PTSUNNY   86  52  30 S6        30.09F
MILFORD        PTSUNNY   83  42  23 SW8       30.13F
MOAB/CYNLANDS  SUNNY     89  48  24 NW8       30.04F
PRICE          CLOUDY    84  39  20 W13       30.14F
ST GEORGE      CLOUDY    86  52  30 SW9       30.05F
KANAB          MOSUNNY   84  52  32 CALM      30.20F

$$

REGIONAL REPORTS     COLORADO/ARIZONA

CITY           SKY/WX    TMP DP  RH WIND       PRES   REMARKS
CRAIG, CO      MOSUNNY   78  52  40 NW5       30.20F
GRAND JUNCTION PTSUNNY   86  52  30 VRB7      30.09F
RIFLE          MOSUNNY   78  50  37 E5        30.16F
MONTROSE       PTSUNNY   81  50  33 NW8       30.19F
CORTEZ         MOSUNNY   87  53  31 W22       30.15S
PAGE, AZ       CLOUDY    82  51  34 N7        30.12F
GRAND CANYON   PTSUNNY   73  49  42 SW6       30.28F
KINGMAN        MOSUNNY   93  52  24 SW14G20   30.06F HX  90
FLAGSTAFF      MOSUNNY   73  49  42 VRB3      30.31F

$$

REGIONAL REPORTS    NEVADA/IDAHO/WYOMING

CITY           SKY/WX    TMP DP  RH WIND       PRES   REMARKS
LAS VEGAS, NV  PTSUNNY   98  52  21 VRB3      29.92F HX  95
ELY            CLOUDY    76  39  26 S8        30.23F
ELKO           PTSUNNY   85  44  23 VRB3      30.14F
POCATELLO, ID  MOSUNNY   80  53  39 CALM      30.12F
BURLEY         SUNNY     81  56  42 NW7       30.09F
EVANSTON, WY   MOSUNNY   75  45  34 W10G18    30.24F
ROCK SPRINGS   MOSUNNY   74  50  42 MISG      30.24F
KEMMERER       PTSUNNY  N/A N/A N/A SW12      30.26F

$$


USA.gov is the U.S. government's official web portal to all federal, state and local government web resources and services.